S-NET A

Last updated on Fri Jun 19 2026 20:04:31 GMT+0000 (Coordinated Universal Time)

1 43188U 18014J 26170.30805269 .00003906 00000+0 20267-3 0 9994 2 43188 97.5374 75.2812 0009104 19.2702 340.8874 15.16697493459082
UTC large
Height (km)
Speed (km/s)
/
Latitude / Longitude
Inclination (degrees)
Orbital Period (minutes)
Azimuth
Elevation
Range (km)
Doppler Factor

Next 0 passes for location: London (51.5072 / 0.1276)

Sorry there are no passes over London.
S-NET A